Skip Page Navigation
NASA JPL Caltech
NASA Logo - Jet Propulsion Laboratory + View the NASA Portal
+ Center for Near-Earth Object Studies
JPL Home Earth Solar System Stars & Galaxies Technology
JPL Solar System Dynamics
BODIES ORBITS EPHEMERIDES TOOLS PHYSICAL DATA DISCOVERY FAQ SITE MAP
IMPORTANT: The SSD Announcement email list is now available. Major changes are coming in the near future, including possible hostname and/or URL changes. To be notified of such changes, subscribe to this email list.

Please visit this page for more details.


JPL Small-Body Database Browser
Search: [ help ]  
105834 (2000 SC150)
Classification: Main-belt Asteroid          SPK-ID: 2105834
Ephemeris | Orbit Diagram | Orbital Elements | Mission Design | Physical Parameters | Discovery Circumstances | Close-Approach Data ]

[ show orbit diagram ]
Orbital Elements at Epoch 2459000.5 (2020-May-31.0) TDB
Reference: JPL 19 (heliocentric ecliptic J2000)
 Element Value Uncertainty (1-sigma)   Units 
e .165607308108923 3.7406e-08  
a 3.142580036395345 1.8094e-08 au
q 2.622145816051071 1.1831e-07 au
i 5.967235280267905 5.2068e-06 deg
node 210.3638304857575 4.05e-05 deg
peri 232.4043553572373 4.4006e-05 deg
M 149.9081731021568 1.58e-05 deg
tp 2458153.173559614702
(2018-Feb-03.67355961)
8.765e-05 TDB
period 2034.829137240139
5.57
1.7574e-05
4.811e-08
d
yr
n .1769190313877027 1.528e-09 deg/d
Q 3.663014256739619 2.1091e-08 au
  Orbit Determination Parameters
   # obs. used (total)      807  
   data-arc span      6789 days (18.59 yr)  
   first obs. used      2000-09-24  
   last obs. used      2019-04-27  
   planetary ephem.      DE431  
   SB-pert. ephem.      SB431-N16  
   condition code      0  
   norm. resid. RMS      .56846  
   source      ORB  
   producer      Otto Matic  
   solution date      2019-Jul-13 08:30:20  

Additional Information
 Earth MOID = 1.64324 au 
 Jupiter MOID = 1.63198 au 
 T_jup = 3.180 
[ show covariance matrix ]

Ephemeris | Orbit Diagram | Orbital Elements | Mission Design | Physical Parameters | Discovery Circumstances | Close-Approach Data ]

Physical Parameter Table
Parameter Symbol Value Units Sigma Reference Notes
absolute magnitude H 14.4   n/a MPO436501  
diameter diameter 7.080 km 0.528 urn:nasa:pds:neowise_diameters_albedos::2.0[mainbelt] (http://adsabs.harvard.edu/abs/2011ApJ...741...68M)  
geometric albedo albedo 0.056   0.015 urn:nasa:pds:neowise_diameters_albedos::2.0[mainbelt] (http://adsabs.harvard.edu/abs/2011ApJ...741...68M)  

105834 (2000 SC150)          Discovered 2000-Sep-24 by LINEAR at Socorro
Reference: 20051019/Numbers.arcLast Updated: 2005-10-26

[ show close-approach data ]
Ephemeris | Orbit Diagram | Orbital Elements | Mission Design | Physical Parameters | Discovery Circumstances | Close-Approach Data ]
ABOUT SSD CREDITS/AWARDS PRIVACY/COPYRIGHT GLOSSARY LINKS
FirstGov 2020-Apr-04 00:42 UT
(server date/time)  
NASA Home Page
Site Manager:   Ryan S. Park
Webmaster  Alan B. Chamberlin